Powrót do katalogu

GLOBALSTAR M068

AktywnyŁącznośćLEO
NORAD 32266·PAYLOAD·🇺🇸 United States

Wystrzelony Oct 20, 2007 z Baikonur Cosmodrome

Loading…

Następne Przeloty (najbliższe 24 godziny)

TLE

ŚwieżeSource: Space-Track

Epoka: Sep 14, 2026, 07:07 UTC

1 32266U 07048D   26257.29704517 -.00000086  00000-0  98694-4 0  9990
2 32266  51.9913 357.9378 0001416  76.9101 317.2042 12.62850514874931

Śledź GLOBALSTAR M068 w czasie rzeczywistym z AllMySat

Download on the App Store